Location: Unspecified
(48.7670°N, 0.0000°E)
Time: 03:35:35
(UTC+00:00)

A-11 Canister half - Pass Details

Date: 26 June 2019
Orbit: 1526 x 1683 km, 47.3° (Epoch: 21 July)

Event Time Altitude Azimuth Distance (km) Brightness Sun altitude
Exits shadow 01:25:02 11° 164° (SSE) 3,714 10.5 -15.6°
Maximum altitude 01:30:24 18° 128° (SE) 3,172 10.5 -15.2°
Drops below altitude 10° 01:36:02 10° 90° (E) 3,726 11.3 -14.9°
Sets 01:40:20 0° 73° (ENE) 4,696 12.2 -14.6°
